OBJECT AM, 69015

Orbit data source: Space-Track

You're viewing an Uncataloged Satellite

Recently launched and/or uncataloged satellites may have evolving metadata. Metadata may include but not limited to: Owner, Maufacturer, Bus, Motor, and Mission.

OBJECT AM, 69015 is a satellite in SSO that was launched on Sun, 03 May 2026 UTC launched from the Air Force Western Test Range (AFWTR). Unknown objects in Earth's orbit typically refer to objects detected orbiting the Earth but have not yet been identified or cataloged. These objects could be anything from previously untracked satellites, spent rocket stages, debris from satellite collisions, or even natural meteoroids temporarily captured by Earth's gravity.

Loading next visibility...
Identifier
69015, 2026-100AM
Orbit
SSO
Country
Flag of TBDTBD
Related business
None
Manufacturer
Unknown
Mission
Operational spacecraft
Bus & Motor
Unknown
Mass
Unknown
Launch date (UTC)
2026-05-03 (1 week ago)
Launch vehicle
Unknown
Launch site
Air Force Western Test Range (AFWTR)
Object type
Unknown
Shape & HBR
Unknown
Radar Cross Section
RCS unknown

Expand to show TLE details & history
Last TLE update: 12 hours ago

TLE from 12 hours ago
0 OBJECT AM
1 69015U 26100AM  26130.04345110  .00005811  00000-0  26429-3 0  9991
2 69015  97.4036  28.5481 0008740 163.6359 196.5161 15.21076015  1022
Epoch: 2026-05-10T01:02Z
TLE epoch observation values (Epoch: 2026-05-10T01:02:34.175Z)
Latitude
0.00005°
Longitude
145.0535°
Altitude
511.453 km
Speed
7.605 km/s
True Right ascension
01h 54m 11s
True Declination
0° 00' 00"
Sunlit
Object was in daylight at epoch
Visualization orbit readout
Latitude
Unknown
Longitude
Unknown
Altitude
Unknown
Speed
Unknown
Apparent Right ascension
Unknown
Apparent Declination
Unknown
Sunlit
N/A
Visualization observer readout
Local Sidereal Time
21:18:47
Azimuth
Unknown
Elevation
Unknown
Doppler factor
Unknown
Orbital elements
Apogee altitude
505.569 km
Perigee altitude
493.547 km
Semi-major axis
6,877.695 km
Eccentricity
0.00087
Inclination
97.4036°
RAAN
28.5481°
Arg. of periapsis
163.6359°
True anomaly
196.48766°
Mean anomaly
196.5161°
Eccentric anomaly
196.50188°
Mean motion
3.80521 °/min
Orbital period
94.61 mins
BSTAR
0.00026429
Loading maneuver chart data...
Computing Atmospheric mass density...
Loading historical data...
Loading historical data...
Loading historical data...
Loading historical data...
Loading historical data...
Loading historical data...
Loading historical data...

Documentation

Showing up to 5 results
|